"2010-02-13 00:00:00",1676439,0.157,4.985,15.66,0.118,3.402,102.4305,5.503,6.469,28.5,0,110,13.51,6.27,327.0
"2010-02-13 00:00:30",1676440,0.034,0.47,23.41,0.076,3.483,102.4296,5.5,6.462,28.51,0,110,13.51,6.27,322.5
"2010-02-13 00:01:00",1676441,0.24,359.6,20.63,0.307,3.66,102.4302,5.502,6.489,28.51,0,110,13.51,6.27,321.6
"2010-02-13 00:01:30",1676442,1.32,0.094,8.28,1.19,5.361,102.4291,5.499,6.465,28.57,0,110,13.47,6.27,322.1
"2010-02-13 00:02:00",1676443,1.234,357.9,9.36,0.972,5.592,102.427,5.494,6.622,28.76,0,110,13.47,6.26,319.9
"2010-02-13 00:02:30",1676444,2.906,4.042,7.668,1.154,8.35,102.4273,5.494,6.66,28.74,0,110,13.47,6.27,326.0
"2010-02-13 00:03:00",1676445,2.638,359.9,9.16,1.168,7.152,102.4273,5.494,6.719,28.8,0,110,13.48,6.27,321.9
"2010-02-13 00:03:30",1676446,3.052,357.4,7.009,1.206,6.712,102.4267,5.493,6.713,28.75,0,110,13.47,6.26,319.4
"2010-02-13 00:04:00",1676447,2.217,349,5.187,1.046,4.93,102.4276,5.495,6.67,28.69,0,110,13.47,6.27,311.0
"2010-02-13 00:04:30",1676448,2.69,348,6.365,1.112,4.468,102.4305,5.503,6.508,28.46,0,110,13.47,6.27,310.0
"2010-02-13 00:05:00",1676449,2.488,347.5,5.143,0.714,3.649,102.4314,5.505,6.513,28.44,0,110,13.47,6.28,309.5
"2010-02-13 00:05:30",1676450,2.882,357.4,8.56,1.292,5.96,102.4268,5.493,6.726,28.62,0,110,13.47,6.26,319.4
"2010-02-13 00:06:00",1676451,3.34,12.4,14.31,1.071,8.16,102.4042,5.436,6.666,28.43,0,110,13.47,6.21,334.4
"2010-02-13 00:06:30",1676452,1.848,345.4,13.17,0.601,4.191,102.3975,5.418,6.555,28.25,0,110,13.48,6.19,307.4
"2010-02-13 00:07:00",1676453,4.726,339.7,9.3,1.489,7.133,102.3998,5.424,6.674,28.36,0,110,13.47,6.20,301.7
"2010-02-13 00:07:30",1676454,5.45,331.8,12.05,1.435,7.52,102.3996,5.424,6.643,28.59,0,110,13.47,6.19,293.8
"2010-02-13 00:08:00",1676455,3.204,337.5,7.553,1.208,5.105,102.378,5.369,6.429,28.55,0,110,13.47,6.14,299.5
"2010-02-13 00:08:30",1676456,2.942,343.2,7.205,1.05,5.644,102.3673,5.341,6.61,28.67,0,110,13.47,6.11,305.2
"2010-02-13 00:09:00",1676457,3.129,9.31,14.64,1.323,8.14,102.3414,5.275,6.576,28.68,0,110,13.47,6.05,331.3
"2010-02-13 00:09:30",1676458,2.571,4.492,9.38,0.644,4.28,102.3352,5.259,6.4,28.79,0,110,13.5,6.03,326.5
"2010-02-13 00:10:00",1676459,4.566,348.3,2.689,0.342,4.058,102.3358,5.261,6.311,29.06,0,110,13.5,6.03,310.3
"2010-02-13 00:10:30",1676460,5.37,359.6,10.14,1.082,7.489,102.3149,5.207,6.493,29.38,0,110,13.47,5.98,321.6
"2010-02-13 00:11:00",1676461,5.612,0.84,7.957,1.709,8.4,102.3047,5.181,6.501,29.57,0,110,13.47,5.95,322.8
"2010-02-13 00:11:30",1676462,6.299,2.262,5.355,1.036,9.16,102.2926,5.15,6.501,29.64,0,110,13.47,5.92,324.3
"2010-02-13 00:12:00",1676463,4.025,5.034,9.32,1.615,7.653,102.2722,5.098,6.462,29.73,0,110,13.47,5.87,327.0
"2010-02-13 00:12:30",1676464,2.434,1.771,5.906,0.747,4.43,102.2657,5.082,6.211,29.6,0,110,13.47,5.85,323.8
"2010-02-13 00:13:00",1676465,2.522,356.7,5.595,0.588,3.911,102.2406,5.018,6.154,29.69,0,110,13.5,5.79,318.7
"2010-02-13 00:13:30",1676466,2.002,0.114,10.46,0.814,4.479,102.2341,5.001,6.2,29.82,0,110,13.48,5.77,322.1
"2010-02-13 00:14:00",1676467,3.362,12.99,11.22,1.305,7.863,102.2087,4.936,6.32,30.02,0,110,13.47,5.71,335.0
"2010-02-13 00:14:30",1676468,4.55,0.487,8.33,1.323,8.58,102.2033,4.922,6.3,30.14,0,110,13.47,5.69,322.5
"2010-02-13 00:15:00",1676469,5.132,356.8,6.692,1.066,8.49,102.1773,4.856,6.232,30.17,0,110,13.47,5.62,318.8
"2010-02-13 00:15:30",1676470,3.978,359.8,10.74,1.576,6.949,102.1702,4.838,6.167,30.23,0,110,13.47,5.61,321.8
"2010-02-13 00:16:00",1676471,2.395,355.1,6.666,0.622,4.02,102.1637,4.821,5.939,30.11,0,110,13.5,5.59,317.1
"2010-02-13 00:16:30",1676472,2.658,356.7,6.259,0.632,3.965,102.1369,4.753,5.913,30.19,0,110,13.5,5.52,318.7
"2010-02-13 00:17:00",1676473,4.223,353,5.104,1.236,5.574,102.1329,4.743,5.931,30.32,0,110,13.47,5.51,315.0
"2010-02-13 00:17:30",1676474,4.598,4.051,8.82,1.083,8.62,102.112,4.689,6.095,30.59,0,110,13.47,5.46,326.1
"2010-02-13 00:18:00",1676475,3.54,9.31,6.641,1.105,8.63,102.1018,4.663,6.103,30.73,0,109.9,13.47,5.43,331.3
"2010-02-13 00:18:30",1676476,3.752,10.73,8.69,1.11,7.892,102.0815,4.611,6.001,30.74,0,110,13.48,5.38,332.7
"2010-02-13 00:19:00",1676477,2.447,2.066,8.22,0.999,4.818,102.0685,4.578,5.758,30.65,0,109.9,13.48,5.35,324.1
"2010-02-13 00:19:30",1676478,2.492,356,3.924,0.414,3.641,102.0583,4.552,5.7,30.71,0,110,13.51,5.32,318.0
"2010-02-13 00:20:00",1676479,2.649,2.242,9.5,0.638,4.755,102.0366,4.497,5.809,30.95,0,109.9,13.48,5.26,324.2
"2010-02-13 00:20:30",1676480,4.896,14.32,5.954,1.061,7.488,102.0295,4.479,5.739,31.04,0,109.9,13.48,5.25,336.3
"2010-02-13 00:21:00",1676481,5.436,15.19,7.156,0.95,9.38,102.0021,4.409,5.893,31.31,0,109.9,13.49,5.18,337.2
"2010-02-13 00:21:30",1676482,5.543,31.41,4.956,0.866,8.88,102.0001,4.403,5.877,31.42,0,109.9,13.49,5.17,353.4
"2010-02-13 00:22:00",1676483,3.358,21.35,8.83,1.578,6.651,101.9823,4.358,5.734,31.44,0,109.9,13.49,5.13,343.4
"2010-02-13 00:22:30",1676484,2.5,12,5.885,0.383,3.793,101.9668,4.318,5.512,31.36,0,109.9,13.52,5.09,334.0
"2010-02-13 00:23:00",1676485,2.496,7.993,6.306,0.445,3.784,101.9642,4.312,5.464,31.45,0,109.9,13.52,5.08,330.0
"2010-02-13 00:23:30",1676486,3.163,13.18,7.34,1.383,4.837,101.941,4.253,5.488,31.59,0,109.9,13.49,5.02,335.2
"2010-02-13 00:24:00",1676487,3.783,5.103,8.18,1.131,7.679,101.9329,4.232,5.581,31.82,0,109.9,13.49,5.00,327.1
"2010-02-13 00:24:30",1676488,4.659,20.13,12.64,0.89,9.41,101.9241,4.209,5.695,31.97,0,109.9,13.49,4.98,342.1
"2010-02-13 00:25:00",1676489,4.67,30.46,4.938,0.762,8.96,101.9038,4.157,5.654,32.01,0,109.9,13.5,4.92,352.5
"2010-02-13 00:25:30",1676490,3.001,22.69,5.377,1.051,5.036,101.9001,4.148,5.421,31.94,0,109.9,13.5,4.91,344.7
"2010-02-13 00:26:00",1676491,2.459,24.83,2.692,0.291,3.582,101.8971,4.14,5.295,31.92,0,109.9,13.53,4.91,346.8
"2010-02-13 00:26:30",1676492,3.569,30.17,7.08,1.418,6.206,101.8751,4.084,5.378,32.06,0,109.9,13.49,4.85,352.2
"2010-02-13 00:27:00",1676493,2.457,22.44,6.269,0.876,5.106,101.8783,4.092,5.347,32.16,0,109.9,13.49,4.86,344.4
"2010-02-13 00:27:30",1676494,3.947,38.55,6.769,1.191,8.12,101.8736,4.08,5.493,32.41,0,109.9,13.5,4.85,0.5
"2010-02-13 00:28:00",1676495,4.544,41.92,5.164,0.745,8.74,101.8592,4.044,5.519,32.44,0,109.9,13.5,4.81,3.9
"2010-02-13 00:28:30",1676496,4.915,45.36,7.421,1.124,7.629,101.8553,4.034,5.327,32.41,0,109.9,13.5,4.80,7.4
"2010-02-13 00:29:00",1676497,3.397,34.68,4.636,0.235,3.892,101.835,3.982,5.121,32.52,0,109.9,13.53,4.75,356.7
"2010-02-13 00:29:30",1676498,3.301,22.58,10.88,1.009,6.023,101.8289,3.966,5.13,32.87,0,109.9,13.5,4.73,344.6
"2010-02-13 00:30:00",1676499,1.542,10.65,12.57,0.904,5.199,101.8298,3.969,5.194,33.01,0,109.9,13.5,4.73,332.6
"2010-02-13 00:30:30",1676500,4.704,35.01,6.231,1.157,7.467,101.8012,3.896,5.208,33.05,0,109.9,13.5,4.66,357.0
"2010-02-13 00:31:00",1676501,4.787,39.85,5.901,1.22,8.32,101.7978,3.887,5.218,33.11,0,109.8,13.5,4.65,1.8
"2010-02-13 00:31:30",1676502,4.856,36.99,7.381,1.128,7.809,101.7826,3.848,5.244,33.34,0,109.8,13.5,4.61,359.0
"2010-02-13 00:32:00",1676503,4.759,28.63,7.457,1.103,6.399,101.7639,3.8,5.112,33.69,0,109.8,13.5,4.57,350.6
"2010-02-13 00:32:30",1676504,4.877,20.97,6.71,1.399,6.586,101.7639,3.8,5.034,34.02,0,109.8,13.5,4.57,343.0
"2010-02-13 00:33:00",1676505,4.635,17.74,8.1,0.921,5.682,101.7472,3.758,5.001,34.27,0,109.8,13.5,4.52,339.7
"2010-02-13 00:33:30",1676506,5.295,26.92,6.96,1.184,8.07,101.73,3.714,5.083,34.51,0,109.8,13.5,4.48,348.9
"2010-02-13 00:34:00",1676507,4.866,15.73,12.21,1.494,8.01,101.73,3.714,5.101,34.63,0,109.8,13.5,4.48,337.7
"2010-02-13 00:34:30",1676508,4.478,26.12,12.54,1.253,6.524,101.7212,3.691,4.875,34.58,0,109.8,13.5,4.46,348.1
"2010-02-13 00:35:00",1676509,3.414,39.72,7.364,1.02,5.86,101.6963,3.628,4.949,34.63,0,109.8,13.5,4.39,1.7
"2010-02-13 00:35:30",1676510,3.227,24.09,12.19,1.043,4.745,101.6961,3.627,4.757,34.57,0,109.8,13.5,4.39,346.1
"2010-02-13 00:36:00",1676511,2.872,29.57,8.47,0.714,5.122,101.6947,3.624,4.875,34.74,0,109.8,13.51,4.39,351.6
"2010-02-13 00:36:30",1676512,4.19,18.96,10.1,1.094,8.02,101.6729,3.568,4.94,34.9,0,109.8,13.51,4.33,341.0
"2010-02-13 00:37:00",1676513,4.836,18.49,12.76,1.568,8.06,101.6621,3.541,4.906,35.03,0,109.8,13.51,4.30,340.5
"2010-02-13 00:37:30",1676514,3.995,28.99,6.513,1.263,5.16,101.6621,3.541,4.771,35.31,0,109.8,13.51,4.30,351.0
"2010-02-13 00:38:00",1676515,3.134,22.54,4.528,0.375,4.172,101.6619,3.54,4.755,35.52,0,109.8,13.51,4.30,344.5
"2010-02-13 00:38:30",1676516,4.892,31.53,7.976,1.146,6.299,101.6421,3.489,4.759,35.63,0,109.8,13.51,4.25,353.5
"2010-02-13 00:39:00",1676517,4.533,25.79,5.461,1.206,5.612,101.6285,3.455,4.728,35.71,0,109.8,13.51,4.22,347.8
"2010-02-13 00:39:30",1676518,5.601,32.74,6.278,1.07,8.46,101.6282,3.454,4.832,35.81,0,109.8,13.51,4.22,354.7
"2010-02-13 00:40:00",1676519,5.972,25.69,6.662,0.897,8.54,101.6282,3.454,4.821,35.81,0,109.8,13.51,4.22,347.7
"2010-02-13 00:40:30",1676520,3.86,17.95,6.584,1.466,6.191,101.6166,3.424,4.712,36,0,109.8,13.51,4.19,340.0
"2010-02-13 00:41:00",1676521,3.781,18.34,7.08,1.184,5.396,101.6011,3.385,4.676,36.08,0,109.8,13.51,4.15,340.3
"2010-02-13 00:41:30",1676522,4.745,18.52,5.907,1.092,5.375,101.5952,3.37,4.592,36.04,0,109.8,13.51,4.13,340.5
"2010-02-13 00:42:00",1676523,3.483,11.63,9.24,1.968,6.6,101.5986,3.378,4.682,36.25,0,109.8,13.51,4.14,333.6
"2010-02-13 00:42:30",1676524,6.072,21.14,10.56,1.016,8.53,101.5924,3.363,4.718,36.38,0,109.8,13.51,4.13,343.1
"2010-02-13 00:43:00",1676525,6.806,25.03,6.85,1.024,8.16,101.5752,3.319,4.656,36.4,0,109.8,13.51,4.08,347.0
"2010-02-13 00:43:30",1676526,6.452,21.58,8.14,1.025,7.746,101.571,3.308,4.651,36.44,0,109.8,13.51,4.07,343.6
"2010-02-13 00:44:00",1676527,5.184,17.98,8.33,1.389,6.616,101.5739,3.315,4.509,36.36,0,109.8,13.51,4.08,340.0
"2010-02-13 00:44:30",1676528,5.012,13.6,9.72,1.199,5.796,101.575,3.318,4.582,36.29,0,109.8,13.51,4.08,335.6
"2010-02-13 00:45:00",1676529,4.722,23.42,8.71,1.356,5.611,101.5657,3.294,4.481,36.33,0,109.8,13.51,4.06,345.4
"2010-02-13 00:45:30",1676530,4.642,21.92,7.26,1.376,6.861,101.5553,3.268,4.572,36.69,0,109.8,13.51,4.03,343.9
"2010-02-13 00:46:00",1676531,5.509,23.23,9.48,1.752,7.741,101.5477,3.248,4.599,36.52,0,109.7,13.52,4.01,345.2
"2010-02-13 00:46:30",1676532,4.281,22.92,8.74,1.585,7.38,101.5474,3.248,4.526,36.61,0,109.7,13.51,4.01,344.9
"2010-02-13 00:47:00",1676533,3.145,18.52,6.758,0.89,3.653,101.5494,3.253,4.316,36.68,0,109.8,13.55,4.02,340.5
"2010-02-13 00:47:30",1676534,4.996,20.6,8.75,1.436,5.978,101.5512,3.257,4.472,36.86,0,109.7,13.51,4.02,342.6
"2010-02-13 00:48:00",1676535,6.761,22.56,7.337,1.387,6.913,101.5367,3.221,4.546,36.83,0,109.7,13.51,3.98,344.6
"2010-02-13 00:48:30",1676536,6.964,29.67,6.254,1.173,8.66,101.5209,3.18,4.604,37.1,0,109.7,13.51,3.94,351.7
"2010-02-13 00:49:00",1676537,6.834,32.27,4.438,0.826,8.93,101.5192,3.176,4.569,37.17,0,109.7,13.51,3.94,354.3
"2010-02-13 00:49:30",1676538,5.476,24.72,9.92,1.434,7.162,101.5212,3.181,4.486,37.06,0,109.7,13.51,3.94,346.7
"2010-02-13 00:50:00",1676539,4.569,17.75,4.781,0.525,4.164,101.5247,3.19,4.347,36.92,0,109.7,13.54,3.95,339.8
"2010-02-13 00:50:30",1676540,5.88,24.15,8.31,1.372,5.746,101.5258,3.193,4.263,37,0,109.7,13.51,3.96,346.1
"2010-02-13 00:51:00",1676541,6.109,25.17,8.09,1.349,7.212,101.5207,3.18,4.412,37.22,0,109.7,13.51,3.94,347.2
"2010-02-13 00:51:30",1676542,6.909,31.26,4.035,0.688,8.96,101.5049,3.139,4.513,37.41,0,109.7,13.51,3.90,353.3
"2010-02-13 00:52:00",1676543,6.51,31.49,5.411,0.69,8.79,101.4945,3.113,4.505,37.42,0,109.7,13.52,3.88,353.5
"2010-02-13 00:52:30",1676544,5.52,28.95,9.43,1.072,6.523,101.493,3.109,4.343,37.32,0,109.7,13.52,3.87,351.0
"2010-02-13 00:53:00",1676545,5.385,20.69,4.928,1.216,6.034,101.493,3.109,4.335,37.39,0,109.7,13.52,3.87,342.7
"2010-02-13 00:53:30",1676546,4.627,16.61,3.949,0.601,4.299,101.493,3.109,4.275,37.37,0,109.7,13.52,3.87,338.6
"2010-02-13 00:54:00",1676547,6.618,30.71,5.117,0.734,8.48,101.493,3.109,4.389,37.5,0,109.7,13.52,3.87,352.7
"2010-02-13 00:54:30",1676548,7.272,31.57,4.125,0.959,9.04,101.4848,3.088,4.446,37.75,0,109.7,13.52,3.85,353.6
"2010-02-13 00:55:00",1676549,6.821,32.31,4.488,0.583,8.82,101.4696,3.049,4.429,37.75,0,109.7,13.52,3.81,354.3
"2010-02-13 00:55:30",1676550,6.054,28.36,8.45,1.202,6.97,101.4597,3.024,4.341,37.5,0,109.7,13.52,3.79,350.4
"2010-02-13 00:56:00",1676551,4.711,19.44,2.195,0.314,3.988,101.4591,3.022,4.208,37.41,0,109.7,13.52,3.78,341.4
"2010-02-13 00:56:30",1676552,5.893,27.96,8.38,1.621,5.868,101.4591,3.022,4.166,37.24,0,109.7,13.52,3.78,350.0
"2010-02-13 00:57:00",1676553,5.225,30.16,6.471,1.32,6.819,101.4591,3.022,4.335,37.5,0,109.7,13.52,3.78,352.2
"2010-02-13 00:57:30",1676554,6.255,32.28,4.295,0.882,8.83,101.4591,3.022,4.379,37.69,0,109.7,13.52,3.78,354.3
"2010-02-13 00:58:00",1676555,6.729,32.5,4.167,0.904,8.72,101.4554,3.013,4.361,37.72,0,109.7,13.52,3.78,354.5
"2010-02-13 00:58:30",1676556,6.74,31.33,5.101,1.084,7.339,101.4486,2.996,4.227,37.38,0,109.7,13.52,3.76,353.3
"2010-02-13 00:59:00",1676557,4.676,25.95,4.492,0.74,4.188,101.4402,2.974,4.137,37.18,0,109.7,13.52,3.74,348.0
"2010-02-13 00:59:30",1676558,5.174,31.67,6.962,1.024,5.772,101.4274,2.942,4.091,37.43,0,109.7,13.52,3.70,353.7
"2010-02-13 01:00:00",1676559,6.083,28.17,7.445,1.459,6.562,101.4255,2.937,4.267,37.5,0,109.7,13.52,3.70,350.2
"2010-02-13 01:00:30",1676560,6.95,34.3,6.101,1.005,8.76,101.4252,2.936,4.297,37.33,0,109.7,13.52,3.70,356.3
"2010-02-13 01:01:00",1676561,7.161,33.09,5.574,1.049,8.7,101.4258,2.937,4.279,37.27,0,109.7,13.52,3.70,355.1
"2010-02-13 01:01:30",1676562,6.758,31.91,5.858,0.98,8.82,101.4258,2.937,4.3,37.32,0,109.7,13.52,3.70,353.9
"2010-02-13 01:02:00",1676563,5.734,25.67,5.073,1.317,6.267,101.4258,2.937,4.185,36.84,0,109.7,13.52,3.70,347.7
"2010-02-13 01:02:30",1676564,5.735,31.45,5.489,1.189,6.219,101.4258,2.937,4.071,36.93,0,109.7,13.52,3.70,353.5
"2010-02-13 01:03:00",1676565,5.109,30.65,6.109,1.171,5.667,101.4263,2.939,4.144,37.27,0,109.7,13.53,3.70,352.6
"2010-02-13 01:03:30",1676566,5.856,36.03,5.353,1.111,8,101.4287,2.945,4.208,37.44,0,109.7,13.52,3.71,358.0
"2010-02-13 01:04:00",1676567,5.941,36.78,4.526,0.733,8.72,101.4281,2.943,4.271,37.48,0,109.7,13.52,3.71,358.8
"2010-02-13 01:04:30",1676568,5.284,35.87,6.821,1.209,7.049,101.4233,2.931,4.082,37.44,0,109.7,13.52,3.69,357.9
"2010-02-13 01:05:00",1676569,5.931,37.89,4.881,1.164,7.538,101.4151,2.91,4.133,37.47,0,109.7,13.52,3.67,359.9
"2010-02-13 01:05:30",1676570,4.105,26.3,2.66,0.643,4.126,101.4055,2.886,4.062,37.47,0,109.7,13.52,3.65,348.3
"2010-02-13 01:06:00",1676571,5.675,34.14,6.273,1.275,7.07,101.4064,2.888,4.122,37.27,0,109.7,13.52,3.65,356.1
"2010-02-13 01:06:30",1676572,5.863,38.33,7.759,1.102,7.651,101.4073,2.89,4.19,37.19,0,109.7,13.53,3.65,0.3
"2010-02-13 01:07:00",1676573,5.845,40.86,5.482,0.938,8.62,101.4142,2.908,4.152,37.23,0,109.7,13.52,3.67,2.9
"2010-02-13 01:07:30",1676574,3.898,30.24,6.642,1.19,4.948,101.4136,2.906,4.031,37.18,0,109.7,13.53,3.67,352.2
"2010-02-13 01:08:00",1676575,4.532,29.72,8.81,1.165,6.045,101.4142,2.908,4.03,37.34,0,109.7,13.53,3.67,351.7
"2010-02-13 01:08:30",1676576,4.629,32.39,14.1,1.442,6.538,101.4153,2.911,4.113,37.54,0,109.7,13.53,3.67,354.4
"2010-02-13 01:09:00",1676577,4.613,32.84,8.63,1.281,7.255,101.4159,2.912,4.169,37.71,0,109.7,13.53,3.67,354.8
"2010-02-13 01:09:30",1676578,4.033,26.3,9.03,1.413,7.451,101.4173,2.916,4.133,37.84,0,109.7,13.53,3.68,348.3
"2010-02-13 01:10:00",1676579,4.225,23.13,7.09,1.38,6.101,101.4179,2.917,4.038,37.74,0,109.7,13.53,3.68,345.1
"2010-02-13 01:10:30",1676580,3.806,22.42,10.95,1.824,5.994,101.4182,2.918,4.038,37.74,0,109.7,13.53,3.68,344.4
"2010-02-13 01:11:00",1676581,4.351,26.96,7.176,1.19,5.556,101.4199,2.922,4.052,37.71,0,109.7,13.53,3.68,349.0
"2010-02-13 01:11:30",1676582,5.179,27.18,5.815,1.399,6.085,101.4143,2.908,4.127,37.78,0,109.7,13.54,3.67,349.2
"2010-02-13 01:12:00",1676583,6.509,32.39,5.406,0.986,8.04,101.4069,2.889,4.14,37.73,0,109.7,13.54,3.65,354.4
"2010-02-13 01:12:30",1676584,6.147,32.35,5.503,1.196,7.619,101.4027,2.878,4.147,37.66,0,109.7,13.54,3.64,354.4
"2010-02-13 01:13:00",1676585,6.087,30.55,6.427,1.13,7.471,101.3928,2.853,4.073,37.56,0,109.7,13.54,3.62,352.5
"2010-02-13 01:13:30",1676586,4.697,23.58,5.301,0.851,5.251,101.3917,2.85,4.035,37.53,0,109.7,13.54,3.61,345.6
"2010-02-13 01:14:00",1676587,6.139,31.19,6.424,0.973,7.454,101.3917,2.85,3.958,37.52,0,109.7,13.54,3.61,353.2
"2010-02-13 01:14:30",1676588,5.631,30.85,5.535,1.143,7.227,101.3917,2.85,4.083,37.66,0,109.7,13.54,3.61,352.9
"2010-02-13 01:15:00",1676589,6.087,34.31,5.792,1.07,7.868,101.3917,2.85,4.092,37.65,0,109.7,13.54,3.61,356.3
"2010-02-13 01:15:30",1676590,4.856,33.89,7.198,1.459,6.608,101.39,2.846,4.034,37.63,0,109.7,13.53,3.61,355.9
"2010-02-13 01:16:00",1676591,4.267,29.02,9.57,1.303,6.04,101.3818,2.825,3.992,37.63,0,109.7,13.54,3.59,351.0
"2010-02-13 01:16:30",1676592,2.257,15.43,7.177,0.833,4.521,101.3688,2.792,3.942,37.57,0,109.7,13.54,3.55,337.4
"2010-02-13 01:17:00",1676593,4.492,25.06,10.84,1.107,7.228,101.3589,2.767,4.014,37.58,0,109.7,13.54,3.53,347.1
"2010-02-13 01:17:30",1676594,3.524,17.61,13.54,1.431,6.415,101.3578,2.764,3.96,37.58,0,109.7,13.54,3.53,339.6
"2010-02-13 01:18:00",1676595,3.187,14.79,15.36,1.078,7.566,101.3586,2.766,4.069,37.74,0,109.7,13.54,3.53,336.8
"2010-02-13 01:18:30",1676596,3.859,17.69,13.8,1.292,6.882,101.3578,2.764,3.997,37.69,0,109.7,13.54,3.53,339.7
"2010-02-13 01:19:00",1676597,3.468,349,10.34,1.295,4.722,101.3578,2.764,3.817,37.5,0,109.7,13.54,3.53,311.0
"2010-02-13 01:19:30",1676598,4.781,25.36,14.55,1.46,5.856,101.3578,2.764,3.964,37.69,0,109.7,13.54,3.53,347.4
"2010-02-13 01:20:00",1676599,2.648,21.33,10.79,0.483,4.549,101.3578,2.764,3.919,37.7,0,109.7,13.57,3.53,343.3
"2010-02-13 01:20:30",1676600,4.442,26.91,9.56,0.668,8.54,101.3578,2.764,4,37.66,0,109.7,13.54,3.53,348.9
"2010-02-13 01:21:00",1676601,5.51,33.02,5.3,0.8,8.5,101.3578,2.764,4.098,37.72,0,109.7,13.54,3.53,355.0
"2010-02-13 01:21:30",1676602,4.662,34.83,7.244,1.337,6.658,101.3578,2.764,4.03,37.9,0,109.7,13.54,3.53,356.8
"2010-02-13 01:22:00",1676603,3.765,23.44,4.867,1.149,5.312,101.3578,2.764,3.817,37.77,0,109.7,13.53,3.53,345.4
"2010-02-13 01:22:30",1676604,3.397,22.83,9.18,0.875,4.438,101.3578,2.764,3.915,37.69,0,109.7,13.53,3.53,344.8
"2010-02-13 01:23:00",1676605,4.154,26.74,9.63,1.635,5.873,101.3578,2.764,3.809,37.4,0,109.7,13.54,3.53,348.7
"2010-02-13 01:23:30",1676606,4.179,17.38,15.89,1.815,7.479,101.3578,2.764,3.986,37.37,0,109.7,13.54,3.53,339.4
"2010-02-13 01:24:00",1676607,5.586,11.32,14.83,0.669,9.01,101.3578,2.764,4.066,37.38,0,109.7,13.54,3.53,333.3
"2010-02-13 01:24:30",1676608,4.318,37.37,7.295,1.021,7.437,101.3578,2.764,3.97,37.03,0,109.7,13.54,3.53,359.4
"2010-02-13 01:25:00",1676609,1.64,357.2,32.37,0.992,3.798,101.3578,2.764,3.782,36.75,0,109.7,13.54,3.53,319.2
"2010-02-13 01:25:30",1676610,5.059,332.8,7.301,1.792,5.707,101.3578,2.764,3.886,36.84,0,109.7,13.54,3.53,294.8
"2010-02-13 01:26:00",1676611,4.543,352.2,16.8,1.365,5.802,101.3578,2.764,3.942,37.21,0,109.7,13.55,3.53,314.2
"2010-02-13 01:26:30",1676612,6.837,358.5,9.83,1.111,8.71,101.3578,2.764,3.992,37.67,0,109.7,13.55,3.53,320.5
"2010-02-13 01:27:00",1676613,5.542,22.55,12.07,0.92,9.04,101.3578,2.764,4.089,37.63,0,109.7,13.55,3.53,344.5
"2010-02-13 01:27:30",1676614,5.428,34.19,5.623,0.915,8.23,101.3578,2.764,4.093,37.52,0,109.7,13.55,3.53,356.2
"2010-02-13 01:28:00",1676615,2.886,11.96,20.52,1.229,4.294,101.3578,2.764,3.798,37.24,0,109.7,13.54,3.53,334.0
"2010-02-13 01:28:30",1676616,2.717,337,7.933,0.891,4.414,101.3578,2.764,3.926,37.41,0,109.7,13.54,3.53,299.0
"2010-02-13 01:29:00",1676617,2.782,9.86,15.32,1.826,5.252,101.3578,2.764,3.811,37.3,0,109.7,13.54,3.53,331.9
"2010-02-13 01:29:30",1676618,3.186,18.7,11.15,1.301,6.184,101.3578,2.764,3.937,37.31,0,109.7,13.55,3.53,340.7
"2010-02-13 01:30:00",1676619,5.091,2.404,11.53,1.332,8.32,101.3578,2.764,3.971,36.73,0,109.7,13.55,3.53,324.4
"2010-02-13 01:30:30",1676620,4.981,27.88,6.386,1.226,8.12,101.3578,2.764,4.073,36.58,0,109.7,13.55,3.53,349.9
"2010-02-13 01:31:00",1676621,5.486,21.95,9.52,1.068,7.681,101.3583,2.765,4.064,37.43,0,109.7,13.55,3.53,344.0
"2010-02-13 01:31:30",1676622,2.796,3.375,13.42,1,3.974,101.3592,2.767,3.796,37.11,0,109.7,13.55,3.53,325.4
"2010-02-13 01:32:00",1676623,4.421,344.4,10.31,1.448,5.849,101.3598,2.769,3.951,37.09,0,109.7,13.55,3.53,306.4
"2010-02-13 01:32:30",1676624,3.152,341.8,6.793,0.8,4.451,101.3601,2.77,3.919,36.94,0,109.7,13.58,3.53,303.8
"2010-02-13 01:33:00",1676625,4.791,336.8,19.33,2.173,4.636,101.3632,2.778,3.917,36.83,0,109.7,13.55,3.54,298.8
"2010-02-13 01:33:30",1676626,10.41,328.3,8.18,1.165,8.75,101.3644,2.781,4.108,36.39,0,109.7,13.55,3.54,290.3
"2010-02-13 01:34:00",1676627,9.82,346.2,9.5,0.961,8.93,101.3658,2.784,4.135,36.44,0,109.7,13.55,3.55,308.2
"2010-02-13 01:34:30",1676628,10.88,335.9,7.168,0.731,9.87,101.3658,2.784,4.131,35.81,0,109.7,13.55,3.55,297.9
"2010-02-13 01:35:00",1676629,10.84,339.6,8.53,1.033,9.39,101.3777,2.815,4.131,34.03,0,109.7,13.55,3.58,301.6
"2010-02-13 01:35:30",1676630,11.15,341.7,11.17,1.304,9,101.3992,2.869,4.142,35.32,0,109.7,13.54,3.63,303.7
"2010-02-13 01:36:00",1676631,8.87,355.1,14.31,1.862,8.81,101.4003,2.872,4.157,35.8,0,109.7,13.54,3.63,317.1
"2010-02-13 01:36:30",1676632,5.832,354.4,21.62,1.244,7.638,101.4199,2.922,4.157,36.31,0,109.7,13.54,3.68,316.4
"2010-02-13 01:37:00",1676633,7.138,336.8,11.06,0.935,4.743,101.4352,2.961,4.018,36.26,0,109.7,13.54,3.72,298.8
"2010-02-13 01:37:30",1676634,8.46,328.7,8.95,1.091,4.679,101.4369,2.966,3.989,35.83,0,109.7,13.53,3.73,290.7
"2010-02-13 01:38:00",1676635,8.89,334.1,6.38,1.465,7.133,101.4389,2.971,4.203,35.83,0,109.7,13.54,3.73,296.1
"2010-02-13 01:38:30",1676636,10.08,339.3,5.466,0.908,9.05,101.451,3.002,4.249,35.85,0,109.7,13.54,3.76,301.3
"2010-02-13 01:39:00",1676637,9.47,338.5,7.371,1.442,9.28,101.4731,3.058,4.281,35.66,0,109.7,13.54,3.82,300.5
"2010-02-13 01:39:30",1676638,9.28,343.2,8.86,1.642,9,101.4742,3.061,4.308,35.83,0,109.7,13.54,3.82,305.2
"2010-02-13 01:40:00",1676639,9.2,336.8,5.768,0.951,8.6,101.4742,3.061,4.299,36.06,0,109.7,13.54,3.82,298.8
"2010-02-13 01:40:30",1676640,10.34,332.2,6.243,0.925,8.82,101.4833,3.084,4.317,35.93,0,109.7,13.54,3.85,294.2
"2010-02-13 01:41:00",1676641,9.7,331.9,7.799,1.026,8.69,101.4997,3.126,4.34,35.17,0,109.7,13.54,3.89,293.9
"2010-02-13 01:41:30",1676642,9.05,345.4,5.82,0.961,8.27,101.5093,3.151,4.377,35.1,0,109.7,13.54,3.91,307.4
"2010-02-13 01:42:00",1676643,6.102,346.6,10.53,1.478,6.998,101.5088,3.149,4.318,35.81,0,109.7,13.54,3.91,308.6
"2010-02-13 01:42:30",1676644,5.173,312.5,9.12,0.625,3.677,101.5065,3.143,4.088,35.69,0,109.7,13.57,3.91,274.5
"2010-02-13 01:43:00",1676645,4.929,312.9,6.435,0.356,3.587,101.5073,3.145,4.12,35.54,0,109.7,13.57,3.91,274.9
"2010-02-13 01:43:30",1676646,4.532,337.2,18.02,1.111,6.549,101.5272,3.196,4.337,36.33,0,109.7,13.54,3.96,299.2
"2010-02-13 01:44:00",1676647,7.119,333,13.61,0.91,8.93,101.5286,3.2,4.442,36.3,0,109.7,13.54,3.96,295.0
"2010-02-13 01:44:30",1676648,6.432,336.6,7.85,0.876,9.04,101.5337,3.213,4.441,36.13,0,109.7,13.54,3.98,298.6
"2010-02-13 01:45:00",1676649,5.533,333.3,10.76,0.769,7.827,101.5408,3.231,4.393,36.08,0,109.7,13.54,3.99,295.3
"2010-02-13 01:45:30",1676650,6.389,326.8,7.214,1.424,6.029,101.5391,3.226,4.264,35.98,0,109.7,13.54,3.99,288.8
"2010-02-13 01:46:00",1676651,4.508,327.5,6.132,0.855,3.885,101.5456,3.243,4.162,35.92,0,109.7,13.54,4.01,289.5
"2010-02-13 01:46:30",1676652,4.534,338.5,9.79,1.371,6.848,101.5397,3.228,4.404,36.41,0,109.7,13.55,3.99,300.5
"2010-02-13 01:47:00",1676653,5.374,323.3,8.97,0.742,8.16,101.5334,3.212,4.411,36.4,0,109.7,13.55,3.98,285.3
"2010-02-13 01:47:30",1676654,4.653,318.9,6.399,1.358,6.58,101.5309,3.206,4.374,36.43,0,109.7,13.55,3.97,280.9
"2010-02-13 01:48:00",1676655,5.824,314.7,9.75,1.298,6.689,101.5247,3.19,4.398,36.44,0,109.7,13.55,3.95,276.7
"2010-02-13 01:48:30",1676656,6.7,318,10.05,1.171,6.35,101.521,3.18,4.288,35.92,0,109.7,13.55,3.94,280.0